GFSNGP_prec_precacc24_072.txt.gz
Total_Precipitation_Accumulation
0.00 0.00 0.00 0.00 0.00 0.00 0.00 0.00 0.00 0.00 0.00 0.00 0.00 0.00 0.00 0.00 0.00 0.00 0.00 0.00 0.00 0.00 0.00 0.00 0.00 0.00 0.02 0.04 0.12 0.29 0.29 0.29 0.22 0.19 0.23 0.15 0.19 0.19 0.12 0.10 0.11 0.15 0.11 0.08
0.00 0.00 0.00 0.00 0.00 0.00 0.00 0.00 0.00 0.00 0.00 0.00 0.00 0.00 0.00 0.00 0.00 0.00 0.00 0.00 0.00 0.00 0.00 0.00 0.00 0.01 0.04 0.06 0.15 0.11 0.09 0.12 0.09 0.10 0.15 0.14 0.16 0.15 0.13 0.14 0.19 0.19 0.19 0.17
0.02 0.00 0.01 0.01 0.00 0.00 0.00 0.00 0.00 0.00 0.00 0.00 0.00 0.00 0.00 0.00 0.00 0.00 0.00 0.00 0.00 0.00 0.01 0.01 0.03 0.07 0.03 0.03 0.05 0.05 0.07 0.09 0.04 0.04 0.12 0.12 0.11 0.13 0.14 0.15 0.20 0.21 0.19 0.19
0.10 0.02 0.09 0.03 0.00 0.00 0.00 0.00 0.00 0.00 0.00 0.00 0.00 0.00 0.00 0.00 0.00 0.00 0.00 0.00 0.00 0.00 0.02 0.08 0.10 0.03 0.02 0.01 0.01 0.02 0.03 0.04 0.06 0.05 0.10 0.12 0.12 0.10 0.13 0.13 0.13 0.15 0.14 0.13
0.14 0.07 0.05 0.00 0.00 0.00 0.00 0.00 0.00 0.00 0.00 0.00 0.00 0.00 0.00 0.00 0.00 0.00 0.00 0.00 0.00 0.00 0.00 0.01 0.01 0.01 0.01 0.02 0.01 0.01 0.02 0.03 0.04 0.04 0.07 0.07 0.07 0.08 0.09 0.10 0.09 0.07 0.08 0.08
0.26 0.13 0.04 0.00 0.00 0.00 0.00 0.00 0.00 0.00 0.00 0.00 0.00 0.00 0.00 0.00 0.00 0.00 0.00 0.00 0.00 0.00 0.00 0.00 0.01 0.01 0.01 0.01 0.01 0.01 0.03 0.04 0.02 0.03 0.05 0.04 0.04 0.06 0.05 0.05 0.07 0.06 0.06 0.06
0.34 0.28 0.04 0.00 0.00 0.02 0.03 0.02 0.00 0.00 0.00 0.00 0.00 0.00 0.00 0.00 0.00 0.00 0.00 0.00 0.00 0.00 0.00 0.00 0.00 0.00 0.00 0.00 0.00 0.01 0.01 0.02 0.03 0.03 0.04 0.03 0.04 0.06 0.05 0.05 0.06 0.06 0.06 0.04
0.31 0.32 0.12 0.04 0.08 0.08 0.02 0.01 0.00 0.00 0.00 0.00 0.00 0.00 0.00 0.00 0.00 0.00 0.00 0.00 0.00 0.00 0.00 0.00 0.00 0.00 0.00 0.00 0.00 0.02 0.04 0.05 0.07 0.08 0.08 0.06 0.05 0.07 0.06 0.04 0.04 0.05 0.05 0.05
0.07 0.06 0.04 0.04 0.11 0.09 0.04 0.03 0.01 0.00 0.00 0.00 0.00 0.00 0.00 0.00 0.00 0.00 0.00 0.00 0.00 0.00 0.00 0.00 0.00 0.00 0.00 0.00 0.01 0.03 0.05 0.05 0.07 0.06 0.08 0.10 0.11 0.09 0.07 0.08 0.07 0.08 0.07 0.07
0.02 0.01 0.01 0.03 0.04 0.02 0.01 0.01 0.01 0.01 0.01 0.03 0.04 0.01 0.00 0.00 0.00 0.00 0.00 0.00 0.00 0.00 0.00 0.00 0.00 0.00 0.01 0.03 0.04 0.05 0.05 0.05 0.05 0.05 0.06 0.04 0.04 0.04 0.04 0.04 0.06 0.08 0.09 0.10
0.02 0.00 0.00 0.00 0.04 0.07 0.05 0.02 0.01 0.01 0.01 0.01 0.01 0.01 0.01 0.01 0.00 0.00 0.00 0.00 0.00 0.01 0.02 0.02 0.02 0.04 0.04 0.05 0.04 0.03 0.01 0.00 0.01 0.01 0.01 0.00 0.01 0.03 0.03 0.05 0.09 0.07 0.07 0.09
0.01 0.02 0.02 0.01 0.00 0.01 0.01 0.02 0.02 0.00 0.00 0.01 0.01 0.01 0.02 0.02 0.02 0.02 0.01 0.02 0.01 0.02 0.03 0.03 0.02 0.02 0.01 0.02 0.02 0.02 0.00 0.00 0.01 0.00 0.00 0.00 0.00 0.03 0.05 0.04 0.05 0.04 0.07 0.10
0.01 0.01 0.01 0.01 0.00 0.00 0.01 0.02 0.02 0.02 0.01 0.02 0.02 0.02 0.03 0.05 0.05 0.03 0.02 0.01 0.01 0.02 0.04 0.03 0.05 0.07 0.06 0.06 0.07 0.07 0.04 0.02 0.03 0.03 0.02 0.03 0.03 0.04 0.08 0.19 0.23 0.27 0.28 0.25
0.03 0.04 0.04 0.03 0.02 0.02 0.02 0.02 0.02 0.01 0.01 0.02 0.05 0.11 0.15 0.14 0.14 0.11 0.04 0.03 0.03 0.05 0.09 0.13 0.19 0.29 0.36 0.35 0.28 0.25 0.26 0.28 0.28 0.31 0.34 0.35 0.32 0.32 0.31 0.31 0.34 0.36 0.30 0.19
0.03 0.04 0.02 0.02 0.02 0.02 0.02 0.02 0.01 0.01 0.01 0.01 0.03 0.05 0.10 0.17 0.17 0.07 0.01 0.01 0.03 0.06 0.11 0.14 0.18 0.23 0.27 0.31 0.35 0.40 0.45 0.51 0.51 0.52 0.56 0.53 0.48 0.44 0.39 0.35 0.31 0.31 0.29 0.26
0.01 0.04 0.07 0.09 0.11 0.11 0.10 0.09 0.09 0.09 0.08 0.08 0.08 0.07 0.04 0.03 0.03 0.02 0.02 0.01 0.01 0.03 0.05 0.06 0.13 0.25 0.33 0.41 0.52 0.66 0.80 0.86 0.77 0.69 0.64 0.57 0.49 0.38 0.30 0.25 0.20 0.17 0.16 0.15
0.07 0.06 0.07 0.10 0.11 0.16 0.20 0.21 0.22 0.22 0.23 0.23 0.21 0.18 0.12 0.06 0.05 0.07 0.10 0.09 0.11 0.23 0.35 0.44 0.65 0.71 0.74 0.76 0.72 0.75 0.70 0.69 0.61 0.51 0.45 0.39 0.32 0.25 0.19 0.16 0.14 0.12 0.12 0.11
0.10 0.11 0.09 0.10 0.11 0.12 0.12 0.11 0.12 0.14 0.16 0.16 0.13 0.12 0.12 0.13 0.19 0.31 0.45 0.48 0.53 0.67 0.82 0.88 0.83 0.78 0.72 0.65 0.53 0.46 0.38 0.32 0.27 0.24 0.22 0.19 0.16 0.13 0.12 0.10 0.08 0.07 0.07 0.06
0.04 0.05 0.07 0.09 0.10 0.11 0.11 0.12 0.13 0.14 0.16 0.19 0.23 0.36 0.46 0.60 0.68 0.80 0.84 0.75 0.76 0.70 0.86 0.68 0.50 0.34 0.31 0.29 0.20 0.17 0.16 0.15 0.14 0.13 0.11 0.09 0.08 0.07 0.06 0.06 0.06 0.06 0.06 0.06
0.12 0.13 0.12 0.13 0.15 0.16 0.18 0.25 0.25 0.30 0.47 0.47 0.52 0.60 0.65 0.79 0.77 0.75 0.63 0.56 0.56 0.53 0.46 0.37 0.25 0.20 0.19 0.17 0.12 0.10 0.09 0.08 0.07 0.06 0.05 0.05 0.05 0.06 0.05 0.04 0.04 0.04 0.03 0.03
0.41 0.41 0.42 0.44 0.47 0.47 0.48 0.55 0.45 0.54 0.71 0.64 0.51 0.61 0.61 0.69 0.63 0.54 0.42 0.40 0.54 0.40 0.31 0.24 0.18 0.15 0.11 0.09 0.06 0.05 0.04 0.04 0.03 0.03 0.02 0.02 0.02 0.02 0.02 0.01 0.01 0.01 0.01 0.01
0.41 0.38 0.46 0.48 0.42 0.52 0.59 0.53 0.41 0.43 0.46 0.45 0.44 0.43 0.36 0.43 0.40 0.33 0.31 0.25 0.29 0.20 0.14 0.11 0.08 0.06 0.04 0.03 0.02 0.02 0.01 0.01 0.00 0.01 0.00 0.01 0.01 0.01 0.01 0.00 0.01 0.01 0.01 0.01
0.43 0.40 0.38 0.37 0.33 0.39 0.40 0.37 0.38 0.31 0.32 0.33 0.32 0.32 0.25 0.25 0.22 0.14 0.17 0.19 0.12 0.09 0.06 0.04 0.02 0.01 0.01 0.01 0.00 0.00 0.00 0.00 0.00 0.01 0.01 0.01 0.01 0.01 0.01 0.01 0.01 0.01 0.01 0.01
0.35 0.33 0.35 0.35 0.25 0.16 0.21 0.31 0.22 0.20 0.17 0.17 0.16 0.14 0.09 0.07 0.10 0.08 0.07 0.06 0.03 0.02 0.01 0.00 0.00 0.00 0.00 0.00 0.00 0.00 0.00 0.01 0.01 0.01 0.01 0.01 0.01 0.01 0.01 0.01 0.01 0.01 0.01 0.01
0.24 0.22 0.20 0.15 0.11 0.16 0.14 0.13 0.07 0.07 0.06 0.06 0.06 0.05 0.04 0.04 0.05 0.07 0.03 0.02 0.02 0.03 0.02 0.00 0.00 0.00 0.00 0.01 0.01 0.01 0.01 0.01 0.02 0.01 0.01 0.01 0.01 0.01 0.01 0.01 0.01 0.01 0.01 0.01
0.14 0.13 0.11 0.09 0.09 0.08 0.07 0.04 0.06 0.08 0.04 0.05 0.07 0.06 0.05 0.03 0.02 0.02 0.02 0.02 0.01 0.01 0.02 0.02 0.01 0.01 0.01 0.01 0.01 0.01 0.01 0.01 0.01 0.02 0.02 0.01 0.01 0.01 0.01 0.01 0.01 0.01 0.01 0.01
0.07 0.04 0.02 0.02 0.02 0.02 0.02 0.03 0.03 0.04 0.04 0.05 0.06 0.06 0.04 0.04 0.03 0.03 0.03 0.02 0.02 0.01 0.01 0.01 0.02 0.02 0.01 0.01 0.01 0.01 0.01 0.01 0.02 0.02 0.01 0.01 0.01 0.01 0.01 0.01 0.01 0.00 0.00 0.00

GFSNGP_prec_precacc24_075.txt.gz
Total_Precipitation_Accumulation
0.02 0.01 0.00 0.00 0.00 0.00 0.00 0.00 0.00 0.00 0.00 0.00 0.00 0.00 0.00 0.00 0.00 0.00 0.00 0.00 0.00 0.00 0.00 0.00 0.00 0.00 0.02 0.04 0.11 0.26 0.26 0.27 0.20 0.17 0.22 0.15 0.18 0.18 0.12 0.10 0.11 0.15 0.11 0.08
0.00 0.00 0.00 0.00 0.00 0.00 0.00 0.00 0.00 0.00 0.00 0.00 0.00 0.00 0.00 0.00 0.00 0.00 0.00 0.00 0.00 0.00 0.00 0.00 0.00 0.00 0.03 0.05 0.13 0.10 0.08 0.12 0.08 0.10 0.15 0.14 0.16 0.15 0.13 0.14 0.19 0.19 0.19 0.17
0.02 0.00 0.01 0.01 0.00 0.00 0.00 0.00 0.00 0.00 0.00 0.00 0.00 0.00 0.00 0.00 0.00 0.00 0.00 0.00 0.00 0.00 0.01 0.01 0.03 0.06 0.02 0.02 0.04 0.04 0.07 0.09 0.04 0.04 0.12 0.12 0.11 0.13 0.14 0.15 0.20 0.21 0.19 0.19
0.10 0.02 0.09 0.03 0.00 0.00 0.00 0.00 0.00 0.00 0.00 0.00 0.00 0.00 0.00 0.00 0.00 0.00 0.00 0.00 0.00 0.00 0.02 0.08 0.10 0.03 0.02 0.01 0.01 0.02 0.03 0.04 0.06 0.05 0.10 0.12 0.12 0.10 0.13 0.13 0.13 0.15 0.14 0.13
0.14 0.07 0.05 0.00 0.00 0.00 0.00 0.00 0.00 0.00 0.00 0.00 0.00 0.00 0.00 0.00 0.00 0.00 0.00 0.00 0.00 0.00 0.00 0.01 0.01 0.01 0.01 0.02 0.01 0.01 0.02 0.03 0.04 0.04 0.07 0.07 0.07 0.08 0.09 0.10 0.09 0.07 0.08 0.08
0.26 0.14 0.04 0.00 0.00 0.00 0.00 0.00 0.00 0.00 0.00 0.00 0.00 0.00 0.00 0.00 0.00 0.00 0.00 0.00 0.00 0.00 0.00 0.00 0.01 0.01 0.01 0.01 0.01 0.01 0.03 0.04 0.02 0.03 0.05 0.04 0.04 0.06 0.05 0.05 0.07 0.06 0.07 0.07
0.33 0.28 0.05 0.00 0.00 0.02 0.03 0.03 0.00 0.00 0.00 0.00 0.00 0.00 0.00 0.00 0.00 0.00 0.00 0.00 0.00 0.00 0.00 0.00 0.00 0.00 0.00 0.00 0.00 0.01 0.01 0.02 0.03 0.03 0.04 0.03 0.04 0.06 0.05 0.05 0.07 0.09 0.10 0.07
0.31 0.32 0.13 0.04 0.09 0.10 0.05 0.01 0.00 0.00 0.00 0.00 0.00 0.00 0.00 0.00 0.00 0.00 0.00 0.00 0.00 0.00 0.00 0.00 0.00 0.00 0.00 0.00 0.00 0.02 0.04 0.05 0.07 0.08 0.08 0.06 0.05 0.07 0.06 0.06 0.07 0.07 0.08 0.06
0.06 0.06 0.04 0.04 0.13 0.10 0.04 0.03 0.01 0.00 0.00 0.00 0.00 0.00 0.00 0.00 0.00 0.00 0.00 0.00 0.00 0.00 0.00 0.00 0.00 0.00 0.00 0.00 0.01 0.03 0.05 0.05 0.07 0.06 0.08 0.10 0.11 0.11 0.10 0.13 0.13 0.12 0.11 0.11
0.05 0.02 0.02 0.03 0.04 0.02 0.01 0.01 0.01 0.01 0.01 0.03 0.04 0.01 0.00 0.00 0.00 0.00 0.00 0.00 0.00 0.00 0.00 0.00 0.01 0.01 0.02 0.04 0.05 0.06 0.06 0.05 0.05 0.06 0.08 0.06 0.08 0.09 0.09 0.09 0.10 0.11 0.12 0.11
0.02 0.00 0.00 0.00 0.04 0.07 0.05 0.02 0.01 0.01 0.01 0.01 0.01 0.01 0.01 0.01 0.00 0.00 0.00 0.00 0.00 0.01 0.02 0.02 0.03 0.07 0.09 0.10 0.09 0.08 0.07 0.06 0.05 0.04 0.04 0.03 0.04 0.09 0.09 0.11 0.17 0.16 0.17 0.15
0.03 0.04 0.02 0.01 0.00 0.01 0.01 0.02 0.02 0.00 0.00 0.01 0.01 0.01 0.02 0.02 0.02 0.02 0.01 0.02 0.03 0.03 0.05 0.07 0.06 0.09 0.11 0.09 0.09 0.09 0.09 0.08 0.09 0.07 0.05 0.05 0.05 0.07 0.11 0.13 0.13 0.12 0.15 0.15
0.02 0.01 0.01 0.01 0.00 0.00 0.01 0.02 0.02 0.02 0.01 0.02 0.02 0.02 0.03 0.05 0.05 0.03 0.02 0.02 0.02 0.03 0.05 0.08 0.14 0.17 0.22 0.23 0.16 0.13 0.12 0.11 0.10 0.08 0.07 0.06 0.05 0.05 0.10 0.23 0.30 0.37 0.39 0.36
0.03 0.04 0.04 0.03 0.02 0.02 0.02 0.02 0.02 0.01 0.01 0.02 0.05 0.11 0.15 0.14 0.14 0.13 0.11 0.09 0.06 0.05 0.09 0.13 0.20 0.32 0.46 0.54 0.49 0.47 0.48 0.50 0.42 0.42 0.43 0.44 0.45 0.49 0.52 0.56 0.61 0.68 0.61 0.44
0.03 0.04 0.02 0.02 0.02 0.02 0.02 0.02 0.01 0.01 0.01 0.01 0.03 0.05 0.10 0.17 0.20 0.18 0.16 0.13 0.12 0.11 0.13 0.16 0.19 0.24 0.28 0.35 0.43 0.54 0.65 0.79 0.84 0.86 0.89 0.83 0.77 0.72 0.66 0.60 0.54 0.52 0.47 0.41
0.01 0.04 0.07 0.09 0.11 0.11 0.10 0.09 0.10 0.09 0.09 0.09 0.09 0.09 0.10 0.12 0.15 0.16 0.13 0.09 0.05 0.07 0.06 0.06 0.14 0.27 0.34 0.42 0.54 0.69 0.86 0.99 0.96 0.93 0.87 0.78 0.69 0.56 0.47 0.41 0.34 0.30 0.28 0.26
0.07 0.06 0.07 0.10 0.11 0.16 0.20 0.22 0.22 0.23 0.24 0.24 0.25 0.25 0.22 0.21 0.22 0.25 0.25 0.18 0.16 0.25 0.33 0.42 0.65 0.70 0.73 0.77 0.74 0.78 0.74 0.73 0.67 0.58 0.54 0.51 0.45 0.37 0.32 0.27 0.24 0.21 0.20 0.18
0.11 0.11 0.10 0.10 0.11 0.13 0.13 0.12 0.13 0.15 0.17 0.18 0.18 0.17 0.16 0.16 0.20 0.26 0.38 0.41 0.44 0.58 0.76 0.86 0.83 0.77 0.71 0.66 0.54 0.48 0.40 0.34 0.30 0.26 0.25 0.22 0.19 0.16 0.15 0.13 0.11 0.10 0.11 0.09
0.04 0.05 0.08 0.09 0.10 0.11 0.12 0.13 0.13 0.13 0.14 0.15 0.14 0.21 0.27 0.38 0.47 0.62 0.70 0.63 0.66 0.64 0.85 0.68 0.50 0.34 0.31 0.29 0.20 0.17 0.16 0.16 0.15 0.14 0.13 0.11 0.10 0.09 0.09 0.09 0.09 0.09 0.08 0.08
0.11 0.12 0.11 0.13 0.14 0.15 0.17 0.22 0.20 0.21 0.34 0.33 0.36 0.43 0.50 0.66 0.66 0.64 0.55 0.52 0.55 0.53 0.46 0.37 0.25 0.19 0.19 0.17 0.12 0.10 0.10 0.08 0.07 0.07 0.06 0.05 0.06 0.06 0.06 0.05 0.05 0.05 0.03 0.03
0.23 0.23 0.26 0.27 0.33 0.36 0.39 0.45 0.35 0.43 0.57 0.52 0.42 0.49 0.51 0.60 0.55 0.49 0.38 0.37 0.52 0.40 0.31 0.24 0.18 0.15 0.11 0.09 0.06 0.05 0.04 0.04 0.03 0.03 0.02 0.02 0.02 0.02 0.02 0.01 0.01 0.01 0.01 0.01
0.33 0.29 0.35 0.35 0.27 0.37 0.46 0.44 0.34 0.37 0.38 0.37 0.37 0.37 0.31 0.38 0.35 0.31 0.30 0.25 0.29 0.20 0.14 0.11 0.08 0.06 0.04 0.03 0.02 0.02 0.01 0.01 0.00 0.01 0.00 0.00 0.00 0.01 0.01 0.00 0.01 0.01 0.01 0.01
0.40 0.37 0.35 0.33 0.30 0.34 0.34 0.31 0.33 0.27 0.28 0.30 0.28 0.28 0.22 0.24 0.22 0.14 0.17 0.19 0.12 0.09 0.06 0.04 0.02 0.01 0.01 0.01 0.00 0.00 0.00 0.00 0.00 0.00 0.01 0.01 0.01 0.01 0.01 0.01 0.01 0.01 0.01 0.02
0.33 0.31 0.31 0.32 0.24 0.16 0.20 0.30 0.22 0.19 0.16 0.15 0.15 0.13 0.09 0.07 0.10 0.08 0.07 0.06 0.03 0.02 0.01 0.00 0.00 0.00 0.00 0.00 0.00 0.00 0.00 0.01 0.01 0.01 0.01 0.01 0.01 0.01 0.01 0.01 0.01 0.01 0.01 0.01
0.22 0.20 0.18 0.15 0.11 0.15 0.13 0.10 0.05 0.05 0.04 0.05 0.05 0.04 0.04 0.04 0.05 0.07 0.02 0.01 0.01 0.03 0.01 0.00 0.00 0.00 0.00 0.00 0.01 0.00 0.01 0.01 0.01 0.01 0.01 0.01 0.01 0.01 0.01 0.01 0.01 0.01 0.01 0.01
0.14 0.12 0.10 0.08 0.07 0.05 0.04 0.02 0.04 0.06 0.03 0.03 0.06 0.05 0.04 0.03 0.01 0.02 0.01 0.01 0.00 0.01 0.01 0.02 0.01 0.00 0.01 0.01 0.01 0.00 0.01 0.01 0.01 0.01 0.01 0.01 0.01 0.01 0.01 0.01 0.01 0.01 0.01 0.00
0.06 0.03 0.01 0.01 0.01 0.01 0.01 0.02 0.02 0.03 0.03 0.03 0.04 0.05 0.03 0.03 0.02 0.02 0.02 0.01 0.01 0.01 0.01 0.01 0.01 0.02 0.01 0.00 0.01 0.01 0.01 0.01 0.01 0.01 0.01 0.01 0.01 0.01 0.01 0.01 0.00 0.00 0.00 0.00

GFSNGP_prec_precacc24_078.txt.gz
Total_Precipitation_Accumulation
0.04 0.03 0.01 0.06 0.04 0.03 0.05 0.02 0.02 0.01 0.01 0.01 0.00 0.00 0.00 0.00 0.00 0.00 0.00 0.00 0.00 0.00 0.00 0.00 0.00 0.00 0.02 0.03 0.09 0.21 0.19 0.23 0.16 0.16 0.22 0.14 0.17 0.18 0.11 0.10 0.11 0.15 0.11 0.08
0.00 0.01 0.01 0.00 0.01 0.01 0.01 0.01 0.00 0.00 0.01 0.00 0.00 0.00 0.00 0.00 0.00 0.00 0.00 0.00 0.00 0.00 0.00 0.00 0.00 0.00 0.00 0.03 0.11 0.07 0.07 0.08 0.06 0.09 0.15 0.13 0.15 0.15 0.13 0.14 0.19 0.19 0.19 0.17
0.02 0.00 0.01 0.01 0.00 0.00 0.00 0.00 0.00 0.00 0.00 0.00 0.00 0.00 0.00 0.00 0.00 0.00 0.00 0.00 0.00 0.00 0.00 0.00 0.01 0.00 0.01 0.01 0.04 0.04 0.06 0.06 0.03 0.04 0.12 0.12 0.11 0.13 0.14 0.15 0.20 0.21 0.19 0.19
0.10 0.02 0.09 0.03 0.00 0.00 0.00 0.00 0.00 0.00 0.00 0.00 0.00 0.00 0.00 0.00 0.00 0.00 0.00 0.00 0.00 0.00 0.01 0.03 0.06 0.01 0.00 0.01 0.01 0.01 0.02 0.04 0.06 0.05 0.10 0.12 0.12 0.10 0.13 0.13 0.13 0.15 0.14 0.13
0.14 0.07 0.05 0.00 0.00 0.00 0.00 0.00 0.00 0.00 0.00 0.00 0.00 0.00 0.00 0.00 0.00 0.00 0.00 0.00 0.00 0.00 0.00 0.01 0.01 0.01 0.01 0.01 0.01 0.01 0.02 0.03 0.04 0.04 0.07 0.07 0.07 0.08 0.09 0.10 0.09 0.07 0.08 0.08
0.25 0.13 0.04 0.00 0.00 0.00 0.00 0.00 0.00 0.00 0.00 0.00 0.00 0.00 0.00 0.00 0.00 0.00 0.00 0.00 0.00 0.00 0.00 0.00 0.01 0.01 0.01 0.01 0.01 0.01 0.03 0.04 0.02 0.03 0.05 0.04 0.04 0.06 0.05 0.05 0.07 0.06 0.07 0.07
0.31 0.27 0.05 0.00 0.00 0.02 0.04 0.04 0.00 0.00 0.00 0.00 0.00 0.00 0.00 0.00 0.00 0.00 0.00 0.00 0.00 0.00 0.00 0.00 0.00 0.00 0.00 0.00 0.00 0.01 0.01 0.02 0.03 0.03 0.04 0.03 0.04 0.06 0.05 0.05 0.07 0.09 0.10 0.07
0.30 0.32 0.13 0.04 0.10 0.14 0.12 0.03 0.00 0.00 0.00 0.00 0.00 0.00 0.00 0.00 0.00 0.00 0.00 0.00 0.00 0.00 0.00 0.00 0.00 0.00 0.00 0.00 0.00 0.02 0.04 0.05 0.07 0.08 0.08 0.06 0.06 0.08 0.07 0.06 0.07 0.07 0.08 0.07
0.05 0.06 0.03 0.04 0.15 0.12 0.04 0.03 0.01 0.00 0.00 0.00 0.00 0.00 0.00 0.00 0.00 0.00 0.00 0.00 0.00 0.00 0.00 0.00 0.00 0.00 0.00 0.00 0.01 0.03 0.05 0.05 0.07 0.07 0.09 0.14 0.15 0.13 0.11 0.13 0.14 0.14 0.13 0.13
0.10 0.03 0.04 0.08 0.04 0.02 0.01 0.01 0.01 0.01 0.01 0.03 0.04 0.01 0.00 0.00 0.00 0.00 0.00 0.00 0.00 0.00 0.00 0.00 0.01 0.01 0.02 0.04 0.06 0.07 0.07 0.06 0.06 0.06 0.10 0.09 0.11 0.12 0.11 0.11 0.14 0.18 0.19 0.18
0.09 0.06 0.03 0.10 0.14 0.07 0.05 0.02 0.01 0.01 0.01 0.01 0.01 0.01 0.01 0.01 0.00 0.00 0.00 0.00 0.00 0.01 0.02 0.02 0.03 0.07 0.09 0.11 0.10 0.10 0.10 0.09 0.10 0.09 0.08 0.06 0.07 0.13 0.15 0.20 0.30 0.32 0.35 0.39
0.09 0.09 0.08 0.08 0.02 0.01 0.01 0.02 0.01 0.00 0.00 0.01 0.01 0.01 0.02 0.02 0.02 0.02 0.01 0.02 0.03 0.03 0.05 0.07 0.06 0.10 0.11 0.11 0.11 0.13 0.14 0.14 0.18 0.16 0.15 0.14 0.13 0.18 0.24 0.30 0.36 0.41 0.46 0.48
0.03 0.01 0.01 0.01 0.00 0.00 0.01 0.02 0.02 0.02 0.01 0.02 0.02 0.02 0.03 0.05 0.05 0.03 0.02 0.02 0.02 0.03 0.05 0.08 0.14 0.17 0.23 0.28 0.28 0.29 0.31 0.28 0.27 0.28 0.27 0.25 0.24 0.22 0.27 0.43 0.49 0.56 0.60 0.59
0.03 0.04 0.04 0.03 0.02 0.02 0.02 0.02 0.02 0.01 0.01 0.02 0.05 0.11 0.15 0.15 0.14 0.13 0.11 0.09 0.06 0.07 0.11 0.16 0.23 0.35 0.48 0.58 0.62 0.67 0.69 0.74 0.66 0.65 0.65 0.67 0.70 0.76 0.73 0.70 0.78 0.93 0.88 0.66
0.03 0.04 0.02 0.02 0.02 0.02 0.02 0.02 0.01 0.01 0.01 0.01 0.03 0.05 0.10 0.17 0.20 0.18 0.16 0.15 0.16 0.19 0.24 0.28 0.30 0.33 0.32 0.37 0.47 0.61 0.75 0.93 1.02 1.04 1.08 1.09 1.05 0.99 0.91 0.83 0.77 0.76 0.70 0.63
0.01 0.04 0.07 0.09 0.11 0.11 0.10 0.09 0.10 0.09 0.09 0.09 0.09 0.09 0.10 0.12 0.16 0.18 0.18 0.17 0.15 0.17 0.18 0.16 0.21 0.34 0.36 0.42 0.53 0.68 0.85 1.00 1.01 1.02 1.00 0.92 0.82 0.69 0.60 0.54 0.47 0.43 0.41 0.38
0.07 0.06 0.07 0.10 0.12 0.16 0.20 0.22 0.22 0.23 0.24 0.25 0.26 0.26 0.23 0.22 0.23 0.28 0.32 0.31 0.30 0.38 0.45 0.49 0.70 0.71 0.69 0.70 0.67 0.76 0.74 0.74 0.68 0.61 0.58 0.55 0.51 0.46 0.41 0.36 0.34 0.31 0.31 0.28
0.11 0.11 0.10 0.10 0.12 0.13 0.13 0.12 0.13 0.16 0.18 0.19 0.19 0.18 0.17 0.17 0.22 0.29 0.39 0.40 0.40 0.50 0.64 0.72 0.70 0.64 0.62 0.60 0.51 0.47 0.40 0.36 0.31 0.29 0.27 0.25 0.22 0.19 0.18 0.16 0.15 0.14 0.15 0.12
0.04 0.06 0.08 0.10 0.11 0.11 0.12 0.14 0.14 0.14 0.16 0.16 0.14 0.21 0.25 0.33 0.38 0.48 0.53 0.44 0.44 0.41 0.62 0.51 0.39 0.29 0.28 0.27 0.19 0.17 0.17 0.16 0.15 0.15 0.14 0.13 0.11 0.11 0.11 0.10 0.11 0.11 0.10 0.09
0.11 0.12 0.12 0.13 0.14 0.15 0.17 0.22 0.20 0.20 0.31 0.27 0.27 0.31 0.35 0.49 0.50 0.47 0.37 0.34 0.38 0.40 0.37 0.31 0.22 0.18 0.18 0.16 0.12 0.10 0.10 0.08 0.07 0.07 0.06 0.06 0.07 0.06 0.06 0.05 0.05 0.05 0.04 0.03
0.18 0.18 0.19 0.20 0.24 0.27 0.29 0.35 0.25 0.31 0.43 0.40 0.31 0.38 0.40 0.47 0.43 0.39 0.28 0.27 0.42 0.34 0.28 0.23 0.18 0.15 0.11 0.09 0.06 0.05 0.04 0.04 0.03 0.03 0.02 0.02 0.02 0.02 0.02 0.01 0.01 0.01 0.01 0.01
0.28 0.24 0.29 0.28 0.20 0.29 0.35 0.33 0.25 0.28 0.31 0.30 0.30 0.31 0.25 0.30 0.27 0.23 0.23 0.21 0.27 0.19 0.14 0.11 0.08 0.06 0.04 0.03 0.02 0.02 0.01 0.01 0.00 0.01 0.00 0.00 0.00 0.00 0.00 0.00 0.01 0.01 0.01 0.01
0.35 0.32 0.30 0.28 0.25 0.29 0.29 0.25 0.26 0.21 0.22 0.23 0.22 0.21 0.16 0.18 0.17 0.11 0.14 0.17 0.12 0.09 0.05 0.04 0.02 0.01 0.01 0.01 0.00 0.00 0.00 0.00 0.00 0.00 0.00 0.00 0.01 0.01 0.01 0.01 0.01 0.01 0.01 0.01
0.31 0.29 0.29 0.29 0.21 0.15 0.18 0.26 0.18 0.14 0.11 0.10 0.10 0.09 0.06 0.05 0.08 0.07 0.06 0.05 0.03 0.02 0.01 0.00 0.00 0.00 0.00 0.00 0.00 0.00 0.00 0.00 0.01 0.00 0.00 0.00 0.01 0.00 0.01 0.01 0.00 0.01 0.01 0.01
0.20 0.18 0.16 0.13 0.11 0.13 0.10 0.07 0.03 0.02 0.02 0.03 0.03 0.03 0.03 0.02 0.04 0.05 0.01 0.01 0.01 0.01 0.00 0.00 0.00 0.00 0.00 0.00 0.00 0.00 0.00 0.00 0.01 0.00 0.01 0.01 0.01 0.01 0.01 0.00 0.01 0.01 0.01 0.01
0.13 0.11 0.10 0.07 0.06 0.04 0.02 0.01 0.03 0.03 0.01 0.02 0.04 0.04 0.03 0.02 0.01 0.01 0.00 0.00 0.00 0.00 0.01 0.01 0.00 0.00 0.00 0.00 0.00 0.00 0.00 0.00 0.00 0.00 0.00 0.00 0.01 0.00 0.00 0.01 0.01 0.01 0.00 0.00
0.05 0.03 0.01 0.00 0.00 0.00 0.00 0.00 0.01 0.02 0.02 0.02 0.03 0.04 0.02 0.02 0.01 0.01 0.01 0.00 0.00 0.00 0.00 0.01 0.01 0.01 0.01 0.00 0.00 0.00 0.00 0.00 0.00 0.00 0.01 0.01 0.01 0.01 0.00 0.00 0.00 0.00 0.00 0.00

GFSNGP_prec_precacc24_081.txt.gz
Total_Precipitation_Accumulation
0.04 0.04 0.06 0.13 0.09 0.15 0.13 0.10 0.08 0.06 0.05 0.04 0.06 0.08 0.02 0.00 0.00 0.00 0.00 0.00 0.00 0.00 0.00 0.00 0.00 0.03 0.06 0.03 0.04 0.13 0.10 0.14 0.09 0.14 0.17 0.10 0.14 0.14 0.08 0.05 0.09 0.13 0.10 0.07
0.00 0.01 0.01 0.00 0.01 0.08 0.14 0.15 0.09 0.06 0.09 0.02 0.00 0.02 0.01 0.01 0.00 0.00 0.00 0.00 0.00 0.00 0.00 0.00 0.00 0.00 0.01 0.06 0.10 0.07 0.06 0.06 0.06 0.08 0.11 0.10 0.11 0.13 0.11 0.13 0.18 0.19 0.19 0.17
0.02 0.00 0.01 0.01 0.00 0.00 0.00 0.02 0.01 0.00 0.00 0.01 0.00 0.02 0.00 0.00 0.00 0.00 0.00 0.00 0.00 0.00 0.00 0.00 0.00 0.00 0.00 0.01 0.04 0.05 0.05 0.05 0.03 0.04 0.09 0.10 0.11 0.13 0.14 0.15 0.20 0.21 0.19 0.19
0.10 0.02 0.08 0.03 0.00 0.00 0.00 0.00 0.00 0.00 0.00 0.00 0.01 0.00 0.00 0.00 0.00 0.00 0.00 0.00 0.00 0.00 0.00 0.00 0.00 0.00 0.00 0.00 0.01 0.01 0.03 0.06 0.07 0.07 0.11 0.13 0.12 0.10 0.13 0.13 0.13 0.15 0.14 0.13
0.13 0.06 0.05 0.00 0.00 0.00 0.00 0.00 0.00 0.00 0.00 0.00 0.00 0.00 0.00 0.00 0.00 0.00 0.00 0.00 0.00 0.00 0.00 0.00 0.00 0.00 0.00 0.00 0.00 0.00 0.01 0.03 0.04 0.07 0.10 0.10 0.08 0.08 0.09 0.10 0.09 0.07 0.08 0.08
0.22 0.14 0.04 0.00 0.00 0.00 0.00 0.00 0.00 0.00 0.00 0.00 0.00 0.00 0.00 0.00 0.00 0.00 0.00 0.00 0.00 0.00 0.00 0.00 0.00 0.00 0.01 0.00 0.00 0.01 0.03 0.04 0.02 0.04 0.08 0.09 0.08 0.08 0.05 0.05 0.07 0.06 0.07 0.07
0.29 0.22 0.05 0.00 0.00 0.02 0.05 0.05 0.00 0.00 0.00 0.00 0.00 0.00 0.00 0.00 0.00 0.00 0.00 0.00 0.00 0.00 0.00 0.00 0.00 0.00 0.00 0.00 0.00 0.01 0.01 0.02 0.03 0.03 0.04 0.09 0.10 0.11 0.08 0.06 0.08 0.09 0.11 0.08
0.29 0.31 0.13 0.04 0.10 0.15 0.15 0.04 0.00 0.00 0.00 0.00 0.00 0.00 0.00 0.00 0.00 0.00 0.00 0.00 0.00 0.00 0.00 0.00 0.00 0.00 0.00 0.00 0.00 0.02 0.04 0.05 0.07 0.08 0.08 0.07 0.11 0.14 0.13 0.09 0.08 0.07 0.08 0.07
0.03 0.06 0.04 0.08 0.17 0.14 0.08 0.08 0.05 0.01 0.00 0.00 0.00 0.00 0.00 0.00 0.00 0.00 0.00 0.00 0.00 0.00 0.00 0.00 0.00 0.00 0.00 0.00 0.01 0.03 0.05 0.05 0.07 0.07 0.09 0.16 0.20 0.19 0.20 0.21 0.20 0.17 0.14 0.14
0.13 0.09 0.11 0.20 0.14 0.03 0.05 0.01 0.02 0.03 0.01 0.01 0.00 0.00 0.00 0.00 0.00 0.00 0.00 0.00 0.00 0.00 0.00 0.00 0.01 0.01 0.02 0.04 0.06 0.07 0.07 0.06 0.06 0.06 0.10 0.10 0.13 0.15 0.16 0.17 0.19 0.24 0.26 0.25
0.15 0.13 0.18 0.22 0.50 0.07 0.00 0.01 0.00 0.01 0.00 0.00 0.01 0.01 0.01 0.01 0.00 0.00 0.00 0.00 0.00 0.01 0.02 0.02 0.03 0.07 0.09 0.11 0.10 0.10 0.10 0.09 0.10 0.09 0.09 0.08 0.09 0.18 0.19 0.29 0.41 0.42 0.47 0.53
0.24 0.32 0.28 0.26 0.11 0.06 0.01 0.00 0.00 0.00 0.00 0.01 0.00 0.01 0.02 0.02 0.02 0.02 0.01 0.02 0.03 0.03 0.05 0.07 0.06 0.10 0.11 0.11 0.11 0.13 0.14 0.14 0.19 0.16 0.16 0.17 0.17 0.24 0.33 0.41 0.47 0.54 0.63 0.68
0.16 0.10 0.11 0.04 0.01 0.00 0.01 0.02 0.02 0.02 0.01 0.01 0.02 0.02 0.03 0.05 0.05 0.03 0.02 0.02 0.02 0.03 0.06 0.09 0.14 0.18 0.24 0.29 0.29 0.30 0.31 0.29 0.29 0.32 0.32 0.31 0.32 0.35 0.43 0.62 0.67 0.76 0.83 0.85
0.03 0.07 0.06 0.03 0.02 0.02 0.02 0.02 0.02 0.01 0.01 0.02 0.05 0.11 0.15 0.15 0.14 0.14 0.12 0.10 0.07 0.07 0.11 0.16 0.23 0.37 0.52 0.62 0.65 0.69 0.69 0.75 0.68 0.70 0.75 0.81 0.86 0.95 1.04 1.13 1.22 1.39 1.37 1.15
0.03 0.04 0.02 0.02 0.02 0.02 0.02 0.02 0.01 0.01 0.01 0.01 0.03 0.05 0.10 0.18 0.20 0.19 0.17 0.15 0.16 0.19 0.24 0.28 0.31 0.39 0.41 0.45 0.52 0.63 0.76 0.94 1.03 1.07 1.13 1.16 1.13 1.12 1.09 1.03 0.95 0.95 0.89 0.81
0.01 0.04 0.07 0.09 0.11 0.11 0.10 0.09 0.10 0.09 0.09 0.09 0.09 0.10 0.11 0.13 0.16 0.19 0.19 0.17 0.15 0.18 0.20 0.19 0.26 0.42 0.42 0.45 0.55 0.68 0.84 0.96 0.96 0.97 0.99 0.95 0.88 0.76 0.69 0.63 0.57 0.52 0.49 0.48
0.07 0.07 0.07 0.10 0.12 0.16 0.20 0.22 0.23 0.24 0.24 0.25 0.27 0.27 0.23 0.22 0.24 0.29 0.33 0.31 0.30 0.38 0.45 0.50 0.73 0.74 0.68 0.64 0.55 0.58 0.58 0.62 0.61 0.57 0.57 0.56 0.54 0.49 0.46 0.42 0.40 0.37 0.38 0.36
0.11 0.11 0.10 0.11 0.13 0.13 0.13 0.13 0.14 0.16 0.19 0.20 0.20 0.18 0.18 0.17 0.21 0.26 0.35 0.34 0.32 0.41 0.56 0.65 0.62 0.52 0.45 0.43 0.35 0.34 0.31 0.31 0.28 0.28 0.28 0.25 0.23 0.21 0.20 0.18 0.17 0.16 0.17 0.15
0.04 0.06 0.08 0.10 0.11 0.12 0.12 0.14 0.15 0.15 0.16 0.16 0.14 0.18 0.20 0.25 0.29 0.39 0.43 0.33 0.33 0.31 0.49 0.37 0.27 0.18 0.18 0.20 0.15 0.14 0.14 0.14 0.14 0.15 0.14 0.13 0.11 0.11 0.11 0.11 0.11 0.11 0.10 0.09
0.10 0.11 0.11 0.13 0.14 0.15 0.17 0.22 0.20 0.19 0.29 0.25 0.23 0.25 0.28 0.41 0.42 0.38 0.29 0.25 0.28 0.31 0.28 0.23 0.16 0.14 0.15 0.14 0.10 0.09 0.09 0.08 0.07 0.07 0.06 0.06 0.07 0.07 0.06 0.05 0.05 0.05 0.04 0.03
0.16 0.16 0.16 0.16 0.19 0.22 0.24 0.29 0.20 0.25 0.36 0.33 0.26 0.31 0.32 0.37 0.34 0.30 0.20 0.20 0.33 0.27 0.21 0.17 0.13 0.12 0.10 0.08 0.06 0.05 0.04 0.04 0.03 0.03 0.02 0.02 0.02 0.02 0.02 0.01 0.01 0.01 0.01 0.01
0.23 0.20 0.23 0.23 0.16 0.24 0.30 0.28 0.22 0.24 0.26 0.24 0.24 0.26 0.20 0.23 0.20 0.16 0.16 0.15 0.20 0.13 0.09 0.08 0.07 0.05 0.04 0.03 0.01 0.01 0.01 0.01 0.00 0.01 0.00 0.00 0.00 0.00 0.00 0.00 0.01 0.01 0.01 0.01
0.30 0.28 0.26 0.25 0.22 0.25 0.25 0.22 0.23 0.18 0.18 0.19 0.17 0.16 0.12 0.13 0.12 0.06 0.09 0.12 0.07 0.05 0.03 0.03 0.02 0.01 0.01 0.00 0.00 0.00 0.00 0.00 0.00 0.00 0.00 0.00 0.00 0.00 0.00 0.01 0.01 0.01 0.01 0.01
0.28 0.27 0.27 0.27 0.21 0.15 0.17 0.23 0.16 0.12 0.09 0.07 0.06 0.05 0.03 0.03 0.05 0.04 0.03 0.03 0.02 0.01 0.00 0.00 0.00 0.00 0.00 0.00 0.00 0.00 0.00 0.00 0.01 0.00 0.00 0.00 0.00 0.00 0.00 0.00 0.00 0.00 0.01 0.01
0.18 0.17 0.15 0.13 0.10 0.11 0.08 0.04 0.01 0.01 0.01 0.01 0.02 0.01 0.01 0.01 0.02 0.03 0.00 0.00 0.00 0.00 0.00 0.00 0.00 0.00 0.00 0.00 0.00 0.00 0.00 0.00 0.00 0.00 0.00 0.00 0.00 0.01 0.01 0.00 0.00 0.00 0.01 0.00
0.12 0.10 0.09 0.07 0.05 0.03 0.01 0.00 0.01 0.01 0.00 0.01 0.03 0.03 0.02 0.01 0.01 0.01 0.00 0.00 0.00 0.00 0.00 0.00 0.00 0.00 0.00 0.00 0.00 0.00 0.01 0.00 0.00 0.00 0.00 0.00 0.01 0.00 0.00 0.00 0.00 0.01 0.00 0.00
0.05 0.03 0.01 0.00 0.00 0.00 0.00 0.00 0.01 0.02 0.01 0.01 0.02 0.04 0.02 0.01 0.01 0.01 0.00 0.00 0.00 0.00 0.00 0.01 0.00 0.00 0.00 0.00 0.00 0.00 0.00 0.00 0.00 0.00 0.00 0.01 0.01 0.01 0.00 0.00 0.00 0.00 0.00 0.00